Location: Cormont
(50.5693°N, 1.7416°E)
Time: 06:59:26
(UTC+00:00)

Cosmos 1461 - Pass Details

Date: 21 October 2019
Orbit: 524 x 644 km, 65.0° (Epoch: 13 November)

Event Time Altitude Azimuth Distance (km) Brightness Sun altitude
Rises 18:12:52 0° 316° (NW) 2,705 7.1 -13.9°
Reaches altitude 10° 18:15:06 10° 310° (NW) 1,824 6.2 -14.2°
Maximum altitude 18:19:01 47° 237° (WSW) 743 3.8 -14.9°
Drops below altitude 10° 18:23:04 10° 163° (SSE) 1,877 5.3 -15.5°
Enters shadow 18:24:56 - 158° (SSE) 2,614 6.0 -15.8°
